Location: Baili�vre
(50.0696°N, 4.2409°E)
Time: 17:46:56
(UTC+00:00)

ERS-1 Rocket - Pass Details

Date: 08 August 2020
Orbit: 753 x 757 km, 98.5° (Epoch: 25 September)

Event Time Altitude Azimuth Distance (km) Brightness Sun altitude
Exits shadow 19:56:09 - 117° (ESE) 2,453 4.9 -6.7°
Reaches altitude 10° 19:56:40 10° 114° (ESE) 2,282 4.8 -6.8°
Maximum altitude 20:00:42 25° 60° (ENE) 1,497 4.3 -7.3°
Drops below altitude 10° 20:04:45 10° 7° (N) 2,293 5.9 -7.8°
Sets 20:07:23 0° 354° (N) 3,222 6.9 -8.2°
